Home > Time Zones > World Clock > Weather > France > Lens > Past weeks

Flag for France Weather past 2 weeks in Lens, France

Now
72 °F

Broken clouds.


Feels Like: 76 °F
Forecast: 54 / 71 °F
Wind: 10 mph from Southwest

Location: Lille Airport

Current Time: Oct 1, 2014 at 3:41:28 PM

Latest Report: Oct 1, 2014 at 3:12 PM


Visibility: N/A

Pressure: 30.30 "Hg

Humidity: 61%

Dew point: 57 °F

Location of LensLocation

Historic Weather in Lens — Graph

°F

Lens temperature yesterday

Maximum temperature yesterday: 70 °F (at 3:00 PM)
Minimum temperature yesterday: 55 °F (at 7:30 AM)
Average temperature yesterday: 62 °F

Past Weeks' High & Low Weather Summary

 TemperatureHumidityPressure
High81 °F (Sep 17, 3:30 PM)100% (Sep 19, 6:00 AM)30.36 "Hg (Sep 19, 6:00 AM)
Low45 °F (Sep 25, 6:30 AM)48% (Sep 17, 3:00 PM)29.77 "Hg (Sep 18, 3:00 AM)
Average62 °F82%30.08 "Hg
* Reported Sep 16 2:00 PM — Oct 1 2:30 PM, Lens, Weather by CustomWeather, © 2014

Note: Actual official high and low records may vary slightly from our data, if they occured in-between our weather recording intervals... More about our weather records

Advertising

Lens weather history for previous 24 hours

 ConditionsComfort  
Time TempWeatherWind HumidityBarometerVisibility
2:30 PM
Oct 1
72 °FBroken clouds.9 mph61%30.30 "HgN/A
2:00 PM72 °FPartly sunny.9 mph65%30.30 "HgN/A
1:30 PM70 °FPartly sunny.9 mph64%30.30 "HgN/A
1:00 PM70 °FPassing clouds.8 mph64%30.30 "HgN/A
12:30 PM68 °FSunny.7 mph73%30.33 "Hg10 mi
12:00 PM66 °FPassing clouds.6 mph78%30.33 "HgN/A
11:30 AM64 °FPassing clouds.5 mph83%30.33 "HgN/A
11:00 AM63 °FSunny.5 mph88%30.33 "Hg10 mi
10:30 AM61 °FClear.5 mph94%30.30 "Hg5 mi
10:00 AM59 °FClear.3 mph100%30.30 "Hg4 mi
9:30 AM55 °FFog.No wind100%30.30 "Hg3 mi
9:00 AM54 °FFog.No wind100%30.30 "Hg2 mi
8:30 AM50 °FLight fog.No wind100%30.30 "Hg1 mi
8:00 AM50 °FFog.No wind100%30.30 "Hg0 mi
7:30 AM50 °FFog.No wind100%30.27 "Hg0 mi
7:00 AM50 °FFog.No wind100%30.27 "Hg0 mi
6:30 AM50 °FFog.No wind100%30.27 "Hg0 mi
6:00 AM52 °FFog.1 mph100%30.27 "Hg0 mi
5:00 AM52 °FFog.No wind100%30.27 "Hg0 mi
4:30 AM52 °FFog.No wind100%30.27 "Hg1 mi
4:00 AM54 °FFog.No wind100%30.30 "Hg1 mi
3:30 AM52 °FFog.No wind100%30.30 "Hg0 mi
3:00 AM54 °FFog.1 mph100%30.30 "Hg1 mi
2:30 AM54 °FDense fog.No wind94%30.27 "Hg1 mi
2:00 AM54 °FLight fog.No wind100%30.30 "Hg1 mi
1:00 AM55 °FLight fog.No wind94%30.27 "Hg1 mi
12:00 AM55 °FLight fog.No wind100%30.27 "Hg1 mi
11:30 PM
Sep 30
55 °FClear.No wind100%30.30 "Hg10 mi
10:30 PM57 °FClear.3 mph94%30.27 "Hg10 mi
10:00 PM59 °FClear.2 mph88%30.27 "Hg10 mi
9:30 PM59 °FClear.3 mph88%30.27 "Hg10 mi
9:00 PM61 °FClear.5 mph88%30.27 "Hg10 mi
8:30 PM63 °FClear.5 mph83%30.27 "Hg10 mi
8:00 PM64 °FSunny.7 mph78%30.27 "Hg10 mi
7:30 PM66 °FPassing clouds.9 mph73%30.27 "HgN/A
7:00 PM68 °FPassing clouds.7 mph73%30.24 "HgN/A
6:30 PM70 °FPassing clouds.2 mph73%30.24 "HgN/A
6:00 PM70 °FScattered clouds.2 mph73%30.24 "HgN/A
5:30 PM70 °FScattered clouds.3 mph73%30.24 "HgN/A
5:00 PM70 °FScattered clouds.3 mph73%30.24 "HgN/A
4:30 PM68 °FScattered clouds.3 mph73%30.24 "HgN/A
4:00 PM70 °FPartly sunny.3 mph69%30.24 "HgN/A
3:30 PM70 °FScattered clouds.3 mph73%30.27 "HgN/A
3:00 PM70 °FScattered clouds.3 mph73%30.27 "HgN/A
Weather by CustomWeather, © 2014

See weather overviewHow to use our weather pages